[[{"header":{"parameterUnit":"m.s-1","parameterCategory":1,"la1":30.2991,"la2":30.254,"lo1":-89.0895,"lo2":-89.0444,"dy":0.0017,"dx":0.0017,"nx":28,"ny":28,"refTime":"2025-02-09T09:00:00:Z","depth":0,"parameterNumber":2,"parameterNumberName":"U-component_of_WINDS"},"data":[0,0,0,0,0,0,0,0,0,0,0,0,0,0,0,0,0,0,0,0,0,0,0,0,0,0,0,0,0,0,0,0,0,0,0,0,0,0,0,0,0,0,0,0,0,0,0,0,0,0,0,0,0,0,0,0,0,0,-1.8527,-1.8528,0,-1.8585,-1.8586,-1.8587,-1.8569,-1.8568,-1.8567,-1.8566,-1.8626,-1.8628,-1.8631,0,0,0,0,0,0,0,0,0,0,0,0,0,-1.8403,-1.8405,-1.8527,-1.8528,-1.8529,-1.8585,-1.8586,-1.8587,-1.857,-1.8568,-1.8567,-1.8565,-1.8625,-1.8628,-1.8631,0,0,0,0,0,0,0,0,0,0,0,0,0,-1.8459,-1.8406,-1.8527,-1.8527,-1.8528,-1.8585,-1.8586,-1.8587,-1.857,-1.8568,-1.8566,-1.8565,-1.8624,-1.8628,-1.8632,-1.8693,0,0,-1.8644,-1.8646,0,0,0,0,0,0,0,0,-1.8455,-1.8463,-1.8526,-1.8527,-1.8528,-1.8568,-1.8564,-1.8622,-1.857,-1.8554,-1.8566,-1.8564,-1.8608,-1.8613,-1.8628,-1.8695,-1.8698,-1.8644,-1.8647,-1.8649,-1.865,0,0,0,0,0,0,0,-1.8452,-1.8461,-1.855,-1.8527,-1.8528,-1.8524,-1.853,-1.8575,-1.859,-1.8555,-1.8554,-1.8561,-1.8608,-1.8624,-1.8629,-1.8699,-1.8644,-1.8648,-1.865,-1.8652,-1.882,-1.8821,0,0,0,0,0,0,-1.8447,-1.8457,-1.8548,-1.8552,-1.8486,-1.8528,-1.8535,-1.8557,-1.859,-1.8593,-1.8563,-1.856,-1.8618,-1.8625,-1.8631,-1.8705,-1.8648,-1.8652,-1.8655,-1.8818,-1.882,-1.8822,0,0,0,0,0,0,-1.8444,-1.8455,-1.8546,-1.8504,-1.8516,-1.8532,-1.8557,-1.8559,-1.8575,-1.8595,-1.8598,-1.8576,-1.8617,-1.8626,-1.8677,-1.8706,-1.8654,-1.8658,-1.8815,-1.8818,-1.8821,-1.8852,0,0,0,0,0,0,-1.8441,-1.8455,-1.8478,-1.8505,-1.8518,-1.8591,-1.8559,-1.8562,-1.8582,-1.8579,-1.8609,-1.8612,-1.8616,-1.8672,-1.8682,-1.8711,-1.8661,-1.8813,-1.8817,-1.882,-1.8848,-1.8855,-1.8862,0,0,0,0,0,-1.8437,-1.8484,-1.8479,-1.849,-1.8547,-1.8593,-1.86,-1.8604,-1.8585,-1.8608,-1.8621,-1.8611,-1.8702,-1.8677,-1.8688,-1.8719,-1.8811,-1.8815,-1.882,-1.8845,-1.8854,-1.8862,0,0,0,0,0,0,-1.8459,-1.8488,-1.8482,-1.854,-1.8564,-1.859,-1.8619,-1.8613,-1.8643,-1.8639,-1.8643,-1.865,-1.8703,-1.8717,-1.8688,-1.878,-1.8754,-1.8761,-1.8769,-1.8778,-1.8784,-1.8779,-1.8664,0,0,0,0,0,-1.8471,-1.8506,-1.8529,-1.8577,-1.859,-1.8603,-1.8623,-1.8624,-1.8649,-1.8659,-1.8676,-1.8701,-1.8735,-1.8757,-1.879,-1.8851,-1.8857,-1.8878,-1.8885,-1.889,-1.8895,-1.8928,-1.8938,-1.8837,-1.8837,-1.8837,0,0,-1.8496,-1.8516,-1.8537,-1.8582,-1.8601,-1.8637,-1.8611,-1.865,-1.8677,-1.8665,-1.8714,-1.8728,-1.8756,-1.8813,-1.8839,-1.8826,-1.8925,-1.8896,-1.89,-1.8902,-1.8934,-1.8943,-1.8952,-1.884,-1.884,-1.8839,0,0,-1.8558,-1.8577,-1.8619,-1.8639,-1.8668,-1.8676,-1.8687,-1.8714,-1.8722,-1.8772,-1.8764,-1.8796,-1.8855,-1.8875,-1.8893,-1.8965,-1.8957,-1.8976,-1.901,-1.9042,-1.905,-1.9057,-1.9082,-1.9091,-1.8982,-1.8982,-1.8982,0,-1.8585,-1.8638,-1.8642,-1.8682,-1.8702,-1.8693,-1.8736,-1.8755,-1.8794,-1.8808,-1.8793,-1.8867,-1.8886,-1.8946,-1.8964,-1.8979,-1.8991,-1.8972,-1.9049,-1.9056,-1.9063,-1.9086,-1.9096,-1.8984,-1.8984,-1.8983,-1.8983,0,-1.8669,-1.8707,-1.8737,-1.8774,-1.8798,-1.8839,-1.885,-1.8874,-1.8873,-1.8883,-1.8934,-1.8957,-1.8993,-1.9008,-1.9008,-1.907,-1.9061,-1.9048,-1.9021,-1.9074,-1.9096,-1.9105,-1.8987,-1.8986,-1.8985,-1.8985,0,0,-1.8746,-1.8786,-1.8797,-1.8813,-1.8845,-1.8874,-1.8915,-1.8951,-1.8971,-1.8999,-1.9033,-1.9084,-1.9072,-1.9092,-1.9095,-1.9123,-1.9178,-1.9106,-1.9107,-1.9118,-1.9246,-1.9254,-1.9265,-1.9173,-1.9175,-1.9176,-1.9243,0,-1.8811,-1.8882,-1.8887,-1.8952,-1.8986,-1.898,-1.9015,-1.9039,-1.905,-1.9081,-1.9093,-1.9129,-1.9111,-1.9123,-1.9151,-1.9165,-1.9203,-1.916,-1.9204,-1.9206,-1.9196,-1.9276,-1.9286,-1.9347,-1.9252,-1.9253,-1.9254,0,-1.8895,-1.8924,-1.8992,-1.9019,-1.9034,-1.9066,-1.91,-1.913,-1.9156,-1.9162,-1.9186,-1.9185,-1.9227,-1.92,-1.9259,-1.9229,-1.9248,-1.9258,-1.926,-1.9263,-1.9232,-1.928,-1.9367,-1.9376,-1.9268,-1.9267,-1.9266,0,-1.8943,-1.9,-1.9048,-1.9062,-1.9095,-1.9118,-1.9133,-1.9158,-1.918,-1.921,-1.9223,-1.9258,-1.9277,-1.9304,-1.9312,-1.9291,-1.937,-1.9343,-1.9376,-1.9375,-1.9391,-1.9389,-1.9481,-1.9406,-1.9405,-1.9405,-1.9405,0,-1.9013,-1.9055,-1.9069,-1.9099,-1.9145,-1.9152,-1.9198,-1.9212,-1.9234,-1.9266,-1.9263,-1.9294,-1.9303,-1.9335,-1.9342,-1.9389,-1.9398,-1.9404,-1.9405,-1.9403,-1.9402,-1.9414,-1.941,-1.9408,-1.9407,-1.9407,-1.9406,0,-1.9073,-1.9085,-1.9137,-1.9164,-1.9172,-1.9205,-1.9229,-1.9257,-1.9268,-1.9309,-1.9319,-1.9336,-1.9374,-1.9385,-1.9431,-1.9436,-1.949,-1.9488,-1.9481,-1.9481,-1.9512,-1.9508,-1.9612,-1.9626,-1.9543,-1.9544,-1.9545,0,-1.9117,-1.9148,-1.9179,-1.9201,-1.9216,-1.9251,-1.9273,-1.9281,-1.9304,-1.9337,-1.9362,-1.9399,-1.9429,-1.949,-1.9506,-1.9541,-1.9539,-1.9573,-1.9544,-1.9541,-1.9538,-1.9535,-1.9538,-1.9578,-1.9579,-1.958,-1.958,0,-1.9192,-1.9196,-1.9228,-1.9262,-1.9288,-1.9315,-1.9341,-1.9359,-1.937,-1.9397,-1.9435,-1.9458,-1.9505,-1.9542,-1.9577,-1.9593,-1.9589,-1.959,-1.9599,-1.9597,-1.959,-1.9593,-1.9494,-1.9587,-1.9586,-1.9586,-1.9585,-1.9585,-1.9244,-1.9272,-1.9298,-1.9333,-1.9354,-1.9379,-1.9406,-1.9421,-1.9453,-1.9491,-1.9495,-1.9536,-1.9563,-1.961,-1.9628,-1.9661,-1.9651,-1.9664,-1.9667,-1.967,-1.9672,-1.9587,-1.9668,-1.9668,-1.9667,-1.9667,-1.9667,0,-1.9318,-1.9335,-1.9367,-1.9404,-1.9432,-1.9426,-1.9455,-1.9478,-1.9515,-1.954,-1.957,-1.9614,-1.965,-1.967,-1.9706,-1.9729,-1.9728,-1.9738,-1.9735,-1.9739,-1.9679,-1.9667,-1.9738,-1.9738,-1.9738,-1.9738,-1.9738,-1.9738,-1.9359,-1.9406,-1.9414,-1.9471,-1.9487,-1.9528,-1.9545,-1.9567,-1.9588,-1.9637,-1.9667,-1.968,-1.9703,-1.9741,-1.9774,-1.9779,-1.9792,-1.9803,-1.9807,-1.9751,-1.9743,-1.9736,-1.9725,-1.9806,-1.9806,-1.9863,-1.9864,-1.9864]},{"header":{"parameterUnit":"m.s-1","parameterCategory":1,"la1":30.2991,"la2":30.254,"lo1":-89.0895,"lo2":-89.0444,"dy":0.0017,"dx":0.0017,"nx":28,"ny":28,"refTime":"2025-02-09T09:00:00:Z","depth":0,"parameterNumber":3,"parameterNumberName":"V-component_of_WINDS"},"data":[0,0,0,0,0,0,0,0,0,0,0,0,0,0,0,0,0,0,0,0,0,0,0,0,0,0,0,0,0,0,0,0,0,0,0,0,0,0,0,0,0,0,0,0,0,0,0,0,0,0,0,0,0,0,0,0,0,0,1.895,1.8951,0,1.9024,1.9025,1.9026,1.9038,1.9038,1.9037,1.9036,1.9112,1.9115,1.9117,0,0,0,0,0,0,0,0,0,0,0,0,0,1.882,1.8822,1.895,1.8951,1.8952,1.9024,1.9025,1.9026,1.9038,1.9038,1.9037,1.9036,1.9111,1.9115,1.9118,0,0,0,0,0,0,0,0,0,0,0,0,0,1.8883,1.8823,1.895,1.8967,1.8969,1.9024,1.9025,1.9026,1.9039,1.9038,1.9037,1.9036,1.911,1.9114,1.9118,1.9161,0,0,1.913,1.9132,0,0,0,0,0,0,0,0,1.888,1.8888,1.8963,1.8966,1.8968,1.9021,1.9007,1.9072,1.9039,1.9012,1.9036,1.9035,1.9083,1.9089,1.9105,1.9165,1.9168,1.913,1.9133,1.9134,1.9136,0,0,0,0,0,0,0,1.8875,1.8885,1.8979,1.8964,1.8967,1.8971,1.8979,1.9019,1.9052,1.9014,1.9015,1.9024,1.9084,1.9101,1.9107,1.9169,1.913,1.9134,1.9136,1.9138,1.927,1.9272,0,0,0,0,0,0,1.8868,1.8881,1.8977,1.8982,1.8921,1.8974,1.8983,1.9005,1.9051,1.9058,1.9025,1.9024,1.9095,1.9102,1.9109,1.9165,1.9134,1.9138,1.914,1.9269,1.9271,1.9272,0,0,0,0,0,0,1.8865,1.8876,1.8974,1.8932,1.8944,1.8977,1.9002,1.9007,1.9024,1.9059,1.9065,1.9036,1.9094,1.9104,1.9149,1.9167,1.914,1.9143,1.9268,1.927,1.9271,1.9274,0,0,0,0,0,0,1.8861,1.8875,1.8892,1.8932,1.8947,1.9012,1.9003,1.9009,1.9031,1.9031,1.9072,1.9078,1.9094,1.9143,1.9153,1.9172,1.9147,1.9266,1.9269,1.9271,1.9273,1.9276,1.9279,0,0,0,0,0,1.8856,1.8889,1.8892,1.8904,1.8968,1.9013,1.9021,1.904,1.9032,1.905,1.9072,1.9076,1.9163,1.9147,1.9159,1.918,1.9265,1.9268,1.9271,1.9271,1.9275,1.9279,0,0,0,0,0,0,1.885,1.8895,1.8899,1.8945,1.8975,1.9015,1.9037,1.9043,1.9076,1.9075,1.9096,1.9105,1.915,1.9169,1.915,1.9225,1.9214,1.9219,1.9211,1.9215,1.9218,1.9213,1.915,0,0,0,0,0,1.8854,1.8886,1.8924,1.8961,1.8976,1.9004,1.9024,1.9036,1.9068,1.9081,1.9107,1.9137,1.9172,1.9194,1.9228,1.9275,1.9285,1.9295,1.9298,1.9301,1.9305,1.9333,1.9339,1.9281,1.9281,1.9281,0,0,1.8862,1.8891,1.891,1.8961,1.8985,1.9019,1.9015,1.905,1.9076,1.9086,1.9131,1.9151,1.9186,1.9233,1.9255,1.9251,1.9323,1.9304,1.9306,1.9309,1.9337,1.9342,1.9347,1.9282,1.9282,1.9282,0,0,1.8895,1.892,1.8955,1.8979,1.9017,1.9035,1.9044,1.9083,1.9097,1.9142,1.9151,1.9181,1.924,1.9265,1.9286,1.933,1.9336,1.934,1.9356,1.9384,1.9388,1.9393,1.941,1.9415,1.9344,1.9344,1.9344,0,1.8901,1.8953,1.8972,1.9008,1.903,1.9041,1.9077,1.91,1.9147,1.9162,1.9156,1.9231,1.9256,1.931,1.9321,1.9337,1.9348,1.9336,1.9386,1.939,1.9395,1.9411,1.9418,1.9345,1.9345,1.9345,1.9345,0,1.8959,1.8994,1.9018,1.9063,1.9088,1.9124,1.9149,1.9172,1.9182,1.9201,1.9247,1.9278,1.9318,1.9332,1.9341,1.9387,1.9384,1.9382,1.9371,1.94,1.9417,1.9423,1.9345,1.9345,1.9345,1.9345,0,0,1.899,1.9046,1.9055,1.9076,1.9118,1.9146,1.9183,1.9223,1.9243,1.9274,1.9306,1.9356,1.9355,1.9379,1.9391,1.9415,1.945,1.941,1.9412,1.9418,1.9504,1.9507,1.9514,1.9453,1.9455,1.9456,1.9502,0,1.903,1.9095,1.9114,1.9169,1.9203,1.9215,1.9247,1.9276,1.9295,1.9327,1.9348,1.9384,1.9379,1.9393,1.9417,1.9441,1.9468,1.9437,1.9484,1.9486,1.9476,1.9522,1.9524,1.9566,1.9508,1.9509,1.951,0,1.9084,1.9118,1.9177,1.9217,1.9231,1.926,1.9299,1.9328,1.9363,1.9375,1.9402,1.9413,1.9452,1.9439,1.9494,1.9473,1.9493,1.9507,1.9509,1.9516,1.95,1.9531,1.958,1.9587,1.952,1.9519,1.9518,0,1.9103,1.9163,1.9207,1.9224,1.9271,1.9291,1.9311,1.9345,1.9368,1.9402,1.9417,1.9455,1.9476,1.9505,1.9527,1.9515,1.958,1.9568,1.9593,1.9592,1.9607,1.9606,1.9662,1.9617,1.9617,1.9617,1.9617,0,1.9146,1.9183,1.9216,1.9243,1.9284,1.9305,1.9345,1.9366,1.9396,1.9428,1.9439,1.9469,1.9494,1.9527,1.9544,1.9588,1.9596,1.9608,1.9612,1.9608,1.9607,1.9623,1.9621,1.9619,1.9618,1.9618,1.9618,0,1.9175,1.9199,1.9247,1.9288,1.9299,1.9327,1.9362,1.9389,1.9409,1.9449,1.9459,1.949,1.953,1.9553,1.9603,1.9614,1.9663,1.9666,1.9652,1.9654,1.9678,1.9676,1.9747,1.9758,1.9705,1.9705,1.9705,0,1.9202,1.923,1.9273,1.9296,1.9316,1.9352,1.9376,1.9398,1.9422,1.9464,1.9486,1.9527,1.956,1.9623,1.965,1.9689,1.9693,1.9715,1.9699,1.9694,1.9696,1.9694,1.9698,1.9719,1.9719,1.9719,1.972,0,1.9247,1.9258,1.9292,1.9331,1.9359,1.9391,1.9422,1.944,1.9467,1.9494,1.9535,1.9561,1.9613,1.9653,1.9694,1.9715,1.9723,1.9725,1.9733,1.9729,1.9721,1.9727,1.9661,1.9723,1.9723,1.9723,1.9722,1.9722,1.9277,1.9303,1.9338,1.9376,1.9402,1.9432,1.9459,1.9483,1.9517,1.9561,1.9572,1.9615,1.965,1.9706,1.9728,1.9762,1.9759,1.977,1.9773,1.9776,1.9777,1.9714,1.977,1.977,1.977,1.977,1.977,0,1.9324,1.9347,1.9382,1.9426,1.9457,1.946,1.9496,1.9521,1.9559,1.9591,1.9624,1.9671,1.9711,1.9741,1.9782,1.9804,1.9808,1.9814,1.9813,1.9818,1.9777,1.9767,1.981,1.981,1.981,1.981,1.981,1.981,1.9352,1.9398,1.9412,1.9471,1.9494,1.9537,1.9557,1.9584,1.961,1.9663,1.9696,1.9715,1.9747,1.979,1.9827,1.9834,1.985,1.9855,1.9864,1.9825,1.9821,1.9817,1.9808,1.9858,1.9858,1.9902,1.9902,1.9903]}]]